Location: *
(50.5492°N, 7.7469°E)
Time: 20:07:16
(UTC+00:00)

Cosmos 2061 Rocket - Pass Details

Date: 21 October 2019
Orbit: 965 x 1013 km, 82.9° (Epoch: 18 November)

Event Time Altitude Azimuth Distance (km) Brightness Sun altitude
Rises 18:36:25 0° 350° (N) 3,696 7.3 -21.4°
Reaches altitude 10° 18:38:58 10° 353° (N) 2,738 6.5 -21.8°
Maximum altitude 18:45:15 76° 79° (E) 1,002 3.8 -22.8°
Enters shadow 18:49:21 23° 163° (SSE) 1,947 5.3 -23.4°
